Showing default

AISSAT 4, 68454

Orbit data source: Space-Track

AISSAT 4, 68454 is a Norwegian payload satellite in SSO that was launched on Mon, 30 Mar 2026 UTC via an FALCON 9 launch vehicle from the Air Force Western Test Range (AFWTR). Payload-class satellites include a variety of spacecraft equipped with specific instruments for various scientific and technological missions. These include communications satellites like Starlink; space stations such as the ISS; scientific satellites like the Hubble; Earth observation satellites from companies like Planet Labs, Umbra, and HawkEye 360; GPS; miniature CubeSats for education and research; and military/defense satellites.

Loading next visibility...
Identifier
68454, 2026-067AQ
Orbit
SSO
Country
Flag of NONO / NOR
Related business
None
Manufacturer
UTIAS-SFL
Mission
Operational Civil Communications
Bus & Motor
CUBESAT 6U, Unknown motor
Mass
12 kg wet, 12 kg dry
Launch date (UTC)
2026-03-30 (5 months ago)
Launch vehicle
FALCON 9
Launch site
Air Force Western Test Range (AFWTR)
Object type
Payload
Rocket body
Debris
Shape & HBR
Box, 0.2 m
Radar Cross Section
0.080 m², Medium (>0.1 m² and < 1m²)

Expand to show TLE details & history
Last TLE update: 17 hours ago

TLE from 17 hours ago
0 AISSAT 4
1 68454U 26067AQ  26235.34196743  .00004867  00000-0  23917-3 0  9993
2 68454  97.4624 192.8205 0005168 168.5122 191.6231 15.18500015 22129
Epoch: 2026-08-23T08:12Z
TLE epoch observation values (Epoch: 2026-08-23T08:12:25.985Z)
Latitude
-0.00006°
Longitude
98.07283°
Altitude
516.948 km
Speed
7.603 km/s
True Right ascension
12h 51m 16s
True Declination
0° 00' 00"
Sunlit
Object was in daylight at epoch
Visualization orbit readout
Latitude
Unknown
Longitude
Unknown
Altitude
Unknown
Speed
Unknown
Apparent Right ascension
Unknown
Apparent Declination
Unknown
Sunlit
N/A
Visualization observer readout
Local Sidereal Time
16:29:39
Azimuth
Unknown
Elevation
Unknown
Doppler factor
Unknown
Orbital elements
Apogee altitude
510.902 km
Perigee altitude
503.785 km
Semi-major axis
6,885.48 km
Eccentricity
0.00052
Inclination
97.4624°
RAAN
192.8205°
Arg. of periapsis
168.5122°
True anomaly
191.61118°
Mean anomaly
191.6231°
Eccentric anomaly
191.61714°
Mean motion
3.79876 °/min
Orbital period
94.77 mins
BSTAR
0.00023917
Loading maneuver chart data...
Computing Atmospheric mass density...
Loading historical data...
Loading historical data...
Loading historical data...
Loading historical data...
Loading historical data...
Loading historical data...
Loading historical data...

Documentation

Showing up to 5 results
|